GSAT-16

Last updated on Jan. 29, 2020, 4:37 a.m. UTC

1 40332U 14078A   20028.88876491  .00000084  00000-0  00000-0 0  9997
2 40332   0.0722 273.4750 0003199 185.1931  43.8840  1.00272365 18757
UTC
Height (km)
Latitude
Longitude
Inclination
Orbital Period
UTC large
Height (km)
Speed (km/s)
/
Latitude / Longitude
Inclination (degrees)
Orbital Period (minutes)
Azimuth
Elevation
Range (km)
Doppler Factor
iOS Compass Heading
iOS Angle

Next 30 passes for location: Hong Kong

Rise time Rise Azimuth (degrees) Set time Set Azimuth (degrees) Duration Max altitude (degrees)

No matching passes for this satellites